Hagerstown, MD

10:15 PM EDT on April 22, 2018 (GMT -0400)
Hagerstown Regional-Henson

Weather History for KHGR - January, 2013

Change the Weather History Date:

Tuesday, January 22, 2013

  Actual Average Record
Temperature  
Mean Temperature 17 °F 31 °F  
Max Temperature 21 °F 38 °F 62 °F (2018)
Min Temperature 12 °F 23 °F 0 °F (2014)
Degree Days  
Heating Degree Days 48 34  
Month to date heating degree days 630 753  
Since 1 July heating degree days 2439 2717  
Cooling Degree Days 0 0  
Month to date cooling degree days 0 0  
Year to date cooling degree days 0 0  
Moisture  
Dew Point -3 °F    
Average Humidity 44    
Maximum Humidity 53    
Minimum Humidity 34    
Precipitation  
Precipitation 0.00 in 0.08 in 0.07 in (2005)
Month to date precipitation 1.27 1.91  
Year to date precipitation 1.27 1.91  
Sea Level Pressure  
Sea Level Pressure 30.21 in    
Wind  
Wind Speed 20 mph (WNW)    
Max Wind Speed 30 mph    
Max Gust Speed 39 mph    
Visibility 10 miles    
Events      
T = Trace of Precipitation, MM = Missing Value Source: NWS Daily Summary

Daily Weather History Graph

Daily Weather History Graph

Search for Another Location

Airport or City:

Astronomy

Jan. 22, 2013 Rise Set
Actual Time 7:26 AM EST 5:19 PM EST
Civil Twilight 6:57 AM EST 5:48 PM EST
Nautical Twilight 6:24 AM EST 6:21 PM EST
Astronomical Twilight 5:52 AM EST 6:53 PM EST
Moon 1:40 PM EST (1/22) 3:46 AM EST (1/22)
Length of Visible Light 10h 51m
Length of Day
9h 52m
Waxing Gibbous, 82% of the Moon is Illuminated
Jan 22
Waxing Gibbous
Jan 26
Full
Feb 3
Last Quarter
Feb 10
New
Feb 17
First Quarter

Hourly Weather History & Observations

Time (EST) Temp. Windchill Dew Point Humidity Pressure Visibility Wind Dir Wind Speed Gust Speed Precip Events Conditions
12:53 AM 19.9 °F 4.8 °F 1.0 °F 44% 30.03 in 10.0 mi West 18.4 mph 31.1 mph N/A   Partly Cloudy
1:53 AM 18.0 °F 2.6 °F 1.0 °F 48% 30.04 in 10.0 mi WNW 17.3 mph 25.3 mph N/A   Partly Cloudy
2:53 AM 17.1 °F 1.0 °F -0.0 °F 47% 30.07 in 10.0 mi WNW 18.4 mph 28.8 mph N/A   Clear
3:53 AM 16.0 °F -1.3 °F 1.9 °F 54% 30.08 in 10.0 mi WNW 20.7 mph 26.5 mph N/A   Clear
4:53 AM 15.1 °F -2.9 °F -4.0 °F 43% 30.09 in 10.0 mi WNW 21.9 mph 33.4 mph N/A   Clear
5:53 AM 12.9 °F -6.5 °F -6.0 °F 43% 30.12 in 10.0 mi WNW 24.2 mph 32.2 mph N/A   Clear
6:53 AM 12.0 °F -6.9 °F -6.0 °F 44% 30.17 in 10.0 mi West 21.9 mph 27.6 mph N/A   Clear
7:53 AM 12.0 °F -4.5 °F -4.0 °F 49% 30.20 in 10.0 mi WNW 16.1 mph 25.3 mph N/A   Clear
8:53 AM 14.0 °F -2.0 °F -5.1 °F 43% 30.23 in 10.0 mi WNW 16.1 mph - N/A   Partly Cloudy
9:53 AM 15.1 °F -1.6 °F -6.0 °F 39% 30.24 in 10.0 mi WNW 18.4 mph - N/A   Partly Cloudy
10:53 AM 16.0 °F 0.1 °F -6.0 °F 38% 30.25 in 10.0 mi West 17.3 mph - N/A   Scattered Clouds
11:53 AM 17.1 °F 2.0 °F -6.0 °F 36% 30.23 in 10.0 mi WNW 16.1 mph 21.9 mph N/A   Mostly Cloudy
12:53 PM 19.0 °F 3.2 °F -6.0 °F 33% 30.20 in 10.0 mi WNW 19.6 mph 26.5 mph N/A   Overcast
1:53 PM 19.0 °F 2.4 °F -6.0 °F 33% 30.19 in 10.0 mi WNW 21.9 mph 28.8 mph N/A   Scattered Clouds
2:53 PM 19.0 °F 3.6 °F -5.1 °F 34% 30.21 in 10.0 mi NW 18.4 mph - N/A   Partly Cloudy
3:53 PM 18.0 °F 2.2 °F -6.0 °F 35% 30.22 in 10.0 mi NW 18.4 mph 25.3 mph N/A   Clear
4:53 PM 17.1 °F 1.5 °F -6.0 °F 36% 30.24 in 10.0 mi WNW 17.3 mph - N/A   Clear
5:53 PM 15.1 °F 0.5 °F -4.0 °F 43% 30.27 in 10.0 mi WNW 13.8 mph - N/A   Clear
6:53 PM 15.1 °F 0.5 °F -2.9 °F 45% 30.29 in 10.0 mi WNW 13.8 mph - N/A   Clear
7:53 PM 14.0 °F -0.2 °F -2.0 °F 49% 30.30 in 10.0 mi WNW 12.7 mph - N/A   Clear
8:53 PM 14.0 °F 0.5 °F -2.0 °F 49% 30.31 in 10.0 mi WNW 11.5 mph 24.2 mph N/A   Clear
9:53 PM 12.9 °F 0.7 °F -0.9 °F 54% 30.32 in 10.0 mi WNW 9.2 mph - N/A   Clear
10:53 PM 10.9 °F 1.4 °F -0.0 °F 61% 30.32 in 10.0 mi WNW 5.8 mph - N/A   Clear
11:53 PM 10.9 °F 2.9 °F -0.0 °F 61% 30.32 in 10.0 mi West 4.6 mph - N/A   Clear